Weather in Atlashevo

Russia / Chuvash Republic     56°00′30″N   47°33′43″E
temp.,
°C
wind,
m/s
gust,
m/s
humid.,
%
clouds,
%
prec.,
mm/h
press.,
hPa
HPBL,
m
13 april, tue
tue1300:00+4ese3109488 0.0 1036171
03:00+3se2397100 0.0 103638
06:00+3ese26100100 0.1 1035110
09:00+6se38100100 0.1 1035225
12:00+9sse469799 0.0 1034235
15:00+15sse597452 0.0 1032484
18:00+11sse377952 0.0 1031108
21:00+8s34805 0.0 103150
14 april, wed
wed1400:00+7s33795 0.0 103133
03:00+6s3378100 0.0 103028
06:00+6s337263 0.0 103038
09:00+12s36585 0.0 1029267
12:00+17sse56475 0.0 1027758
15:00+18s57450 0.0 1026972
18:00+14sse35695 0.0 102495
21:00+11sse35855 0.0 102462
15 april, thu
thu1500:00+10s33880 0.0 102333
03:00+9s22891 0.0 102217
06:00+9s22890 0.0 102236
09:00+14s34710 0.0 1021408
12:00+17ssw335839 0.0 10201195
15:00+17ssw2253100 0.1 10181401
18:00+15nw116398 0.0 101811
21:00
16 april, fri
fri1600:00+12nnw117666 0.0 101813
03:00+9n379762 0.0 1018146
06:00+8nne589299 0.0 1019362
09:00+8nne5988100 0.0 1020459
12:00+10ne577492 0.0 1021767
15:00+10ne5772100 0.0 10211006
18:00+9ne587361 0.0 1022665
21:00+7ne48699 0.0 1023403
17 april, sat
sat1700:00+3ne378761 0.0 1024144
03:00+2ne367772 0.0 1025111
06:00+2ne377664 0.0 1026175
09:00+7nne46515 0.0 1026705
12:00+10nne56405 0.0 10251716
15:00+10nne673965 0.0 10251970
18:00+8nne610495 0.0 1026626
21:00+3nne39604 0.0 1028202